TimeCDT,TemperatureF,Dew PointF,Humidity,Sea Level PressureIn,VisibilityMPH,Wind Direction,Wind SpeedMPH,Gust SpeedMPH,PrecipitationIn,Events,Conditions,WindDirDegrees,DateUTC
12:15 AM,66.2,59.0,78,30.08,10.0,SE,3.5,-,N/A,,Clear,140,2013-05-02 05:15:00
12:35 AM,64.4,59.0,83,30.07,10.0,SE,5.8,-,N/A,,Mostly Cloudy,130,2013-05-02 05:35:00
12:55 AM,64.4,59.0,83,30.07,10.0,SE,5.8,-,N/A,,Overcast,140,2013-05-02 05:55:00
1:35 AM,66.2,59.0,78,30.08,10.0,Calm,Calm,-,N/A,,Overcast,0,2013-05-02 06:35:00
1:55 AM,68.0,59.0,73,30.08,10.0,Calm,Calm,-,N/A,,Overcast,0,2013-05-02 06:55:00
2:15 AM,64.4,59.0,83,30.08,10.0,WNW,3.5,-,N/A,,Overcast,300,2013-05-02 07:15:00
2:35 AM,64.4,60.8,88,30.08,10.0,WNW,3.5,-,N/A,,Overcast,290,2013-05-02 07:35:00
2:55 AM,64.4,60.8,88,30.08,10.0,West,4.6,-,N/A,,Overcast,280,2013-05-02 07:55:00
3:15 AM,62.6,59.0,88,30.08,10.0,NW,10.4,-,N/A,,Overcast,320,2013-05-02 08:15:00
3:35 AM,59.0,53.6,82,30.09,10.0,NW,11.5,-,N/A,,Mostly Cloudy,310,2013-05-02 08:35:00
3:55 AM,55.4,51.8,88,30.11,10.0,WNW,10.4,-,N/A,,Scattered Clouds,300,2013-05-02 08:55:00
4:15 AM,55.4,51.8,88,30.12,10.0,NW,10.4,-,N/A,,Mostly Cloudy,310,2013-05-02 09:15:00
4:35 AM,53.6,50.0,88,30.13,10.0,NW,10.4,-,N/A,,Overcast,310,2013-05-02 09:35:00
4:55 AM,51.8,50.0,94,30.14,10.0,WNW,11.5,-,N/A,,Mostly Cloudy,300,2013-05-02 09:55:00
5:15 AM,51.8,46.4,82,30.16,10.0,NW,12.7,-,N/A,,Overcast,320,2013-05-02 10:15:00
5:35 AM,50.0,46.4,87,30.16,10.0,NW,10.4,-,N/A,,Overcast,310,2013-05-02 10:35:00
5:55 AM,50.0,46.4,87,30.17,10.0,NW,11.5,18.4,N/A,,Overcast,320,2013-05-02 10:55:00
6:15 AM,50.0,44.6,82,30.17,10.0,NNW,11.5,17.3,N/A,,Overcast,330,2013-05-02 11:15:00
6:35 AM,48.2,42.8,82,30.19,10.0,NNW,15.0,18.4,N/A,,Overcast,330,2013-05-02 11:35:00
6:55 AM,48.2,42.8,82,30.20,10.0,NNW,13.8,17.3,N/A,,Overcast,330,2013-05-02 11:55:00
7:15 AM,48.2,42.8,82,30.21,10.0,NNW,10.4,-,N/A,,Overcast,330,2013-05-02 12:15:00
7:35 AM,48.2,42.8,82,30.21,10.0,NW,11.5,-,N/A,Rain,Light Rain,320,2013-05-02 12:35:00
7:55 AM,46.4,42.8,87,30.22,10.0,NW,8.1,-,N/A,Rain,Light Rain,320,2013-05-02 12:55:00
8:15 AM,46.4,42.8,87,30.22,7.0,NW,9.2,-,0.01,Rain,Light Rain,310,2013-05-02 13:15:00
8:35 AM,44.6,42.8,93,30.22,10.0,NW,5.8,-,0.01,,Light Drizzle,320,2013-05-02 13:35:00
8:55 AM,46.4,42.8,87,30.22,10.0,NNW,5.8,-,0.01,,Overcast,330,2013-05-02 13:55:00
9:15 AM,46.4,44.6,93,30.22,10.0,NW,8.1,-,N/A,,Overcast,320,2013-05-02 14:15:00
9:35 AM,46.4,44.6,93,30.22,10.0,NW,8.1,-,N/A,,Overcast,320,2013-05-02 14:35:00
9:55 AM,46.4,42.8,87,30.22,10.0,NW,6.9,-,N/A,,Overcast,310,2013-05-02 14:55:00
10:15 AM,46.4,42.8,87,30.23,10.0,WNW,10.4,-,N/A,,Overcast,300,2013-05-02 15:15:00
10:35 AM,46.4,42.8,87,30.23,10.0,WNW,11.5,-,N/A,,Overcast,300,2013-05-02 15:35:00
10:55 AM,46.4,42.8,87,30.24,10.0,WNW,12.7,17.3,N/A,,Overcast,290,2013-05-02 15:55:00
11:15 AM,46.4,42.8,87,30.24,10.0,WNW,12.7,19.6,N/A,,Overcast,300,2013-05-02 16:15:00
11:35 AM,46.4,42.8,87,30.26,10.0,WNW,10.4,17.3,N/A,,Overcast,300,2013-05-02 16:35:00
11:55 AM,46.4,42.8,87,30.26,10.0,WNW,13.8,-,N/A,,Overcast,300,2013-05-02 16:55:00
12:15 PM,44.6,42.8,93,30.25,10.0,NW,11.5,-,N/A,,Overcast,310,2013-05-02 17:15:00
12:35 PM,44.6,42.8,93,30.24,10.0,NW,13.8,19.6,N/A,,Overcast,310,2013-05-02 17:35:00
12:55 PM,44.6,42.8,93,30.24,5.0,WNW,11.5,-,N/A,,Overcast,300,2013-05-02 17:55:00
1:15 PM,44.6,42.8,93,30.23,7.0,NNW,13.8,-,N/A,,Overcast,330,2013-05-02 18:15:00
1:35 PM,44.6,41.0,87,30.23,10.0,NNW,11.5,17.3,N/A,,Overcast,330,2013-05-02 18:35:00
1:55 PM,44.6,41.0,87,30.23,10.0,NNW,9.2,-,N/A,,Overcast,340,2013-05-02 18:55:00
2:15 PM,44.6,41.0,87,30.23,10.0,NNW,9.2,-,N/A,,Overcast,330,2013-05-02 19:15:00
2:35 PM,44.6,42.8,93,30.24,10.0,NW,11.5,16.1,N/A,Rain,Rain,310,2013-05-02 19:35:00
2:55 PM,44.6,42.8,93,30.23,7.0,NW,10.4,-,N/A,,Drizzle,310,2013-05-02 19:55:00
3:15 PM,42.8,42.8,100,30.23,10.0,NW,10.4,-,N/A,,Light Drizzle,320,2013-05-02 20:15:00
3:35 PM,42.8,41.0,93,30.23,10.0,WNW,8.1,-,N/A,,Light Drizzle,300,2013-05-02 20:35:00
3:55 PM,42.8,41.0,93,30.22,10.0,NW,10.4,-,N/A,Rain,Rain,320,2013-05-02 20:55:00
4:15 PM,42.8,41.0,93,30.22,10.0,NW,9.2,-,N/A,Rain,Light Rain,320,2013-05-02 21:15:00
4:35 PM,42.8,41.0,93,30.23,10.0,NW,10.4,17.3,0.01,Rain,Rain,310,2013-05-02 21:35:00
4:55 PM,42.8,41.0,93,30.24,10.0,NW,10.4,17.3,0.02,Rain,Light Rain,310,2013-05-02 21:55:00
5:15 PM,42.8,41.0,93,30.23,10.0,NW,11.5,17.3,N/A,,Overcast,320,2013-05-02 22:15:00
5:35 PM,42.8,41.0,93,30.23,10.0,NW,13.8,17.3,N/A,,Light Drizzle,310,2013-05-02 22:35:00
5:55 PM,41.0,39.2,93,30.22,10.0,NW,12.7,-,N/A,,Overcast,320,2013-05-02 22:55:00
6:15 PM,41.0,39.2,93,30.22,10.0,NW,13.8,18.4,N/A,,Overcast,310,2013-05-02 23:15:00
6:35 PM,41.0,37.4,87,30.23,10.0,NW,11.5,18.4,N/A,,Overcast,310,2013-05-02 23:35:00
6:55 PM,41.0,37.4,87,30.23,10.0,NNW,11.5,-,N/A,,Overcast,330,2013-05-02 23:55:00
7:15 PM,41.0,37.4,87,30.22,5.0,NW,12.7,17.3,N/A,,Overcast,320,2013-05-03 00:15:00
7:35 PM,41.0,37.4,87,30.23,10.0,NNW,10.4,16.1,N/A,,Overcast,330,2013-05-03 00:35:00
7:55 PM,39.2,37.4,93,30.23,7.0,NW,10.4,-,N/A,,Light Drizzle,310,2013-05-03 00:55:00
8:15 PM,39.2,37.4,93,30.23,7.0,NW,11.5,21.9,N/A,,Overcast,320,2013-05-03 01:15:00
8:35 PM,39.2,37.4,93,30.23,5.0,NW,9.2,16.1,N/A,Rain,Rain,320,2013-05-03 01:35:00
8:55 PM,37.4,37.4,100,30.23,7.0,NNW,13.8,18.4,N/A,Rain,Light Rain,330,2013-05-03 01:55:00
9:15 PM,37.4,37.4,100,30.23,5.0,NW,8.1,-,N/A,Rain,Rain,320,2013-05-03 02:15:00
9:35 PM,37.4,35.6,93,30.22,5.0,NW,12.7,17.3,N/A,Rain,Rain,320,2013-05-03 02:35:00
9:55 PM,37.4,35.6,93,30.23,3.0,NW,13.8,-,N/A,Rain,Rain,310,2013-05-03 02:55:00
10:15 PM,35.6,35.6,100,30.22,4.0,NW,11.5,18.4,N/A,Rain,Rain,320,2013-05-03 03:15:00
10:35 PM,35.6,35.6,100,30.22,10.0,NNW,12.7,17.3,N/A,,Light Drizzle,330,2013-05-03 03:35:00
10:55 PM,35.6,35.6,100,30.21,10.0,NW,13.8,17.3,N/A,,Overcast,320,2013-05-03 03:55:00
11:15 PM,35.6,35.6,100,30.21,5.0,WNW,10.4,-,N/A,,Heavy Drizzle,300,2013-05-03 04:15:00
11:35 PM,35.6,35.6,100,30.20,4.0,NW,11.5,-,N/A,,Drizzle,310,2013-05-03 04:35:00
11:55 PM,35.6,35.6,100,30.19,2.0,WNW,12.7,18.4,0.01,Rain,Heavy Rain,290,2013-05-03 04:55:00